Voltar ao catálogo

UMBRA-07

AtivoCiênciaSSO
NORAD 58297·PAYLOAD·🇺🇸 United States

Lançado Nov 11, 2023 de Vandenberg Space Force Base

Loading…

Próximas Passagens (próximas 24 horas)

TLE

AtualizadoSource: Space-Track

Época: Sep 14, 2026, 13:47 UTC

1 58297U 23174AT  26257.57459276  .00007547  00000-0  46155-3 0  9992
2 58297  97.3706 310.0027 0004496 121.0643 239.1029 15.10506338156907

Acompanhe UMBRA-07 em tempo real com AllMySat

Download on the App Store